Ozona, TX

7:10 PM CDT on April 19, 2018 (GMT -0500)
Ozona Municipal

Weather History for KOZA - October, 2011

Change the Weather History Date:

Saturday, October 8, 2011

  Actual Average Record
Temperature  
Mean Temperature 68 °F -  
Max Temperature 77 °F 78 °F 89 °F (2014)
Min Temperature 60 °F 54 °F 41 °F (2013)
Cooling Degree Days 4    
Growing Degree Days 18 (Base 50)    
Moisture  
Dew Point 62 °F    
Average Humidity 85    
Maximum Humidity 97    
Minimum Humidity 64    
Precipitation  
Precipitation 0.97 in - - ()
Sea Level Pressure  
Sea Level Pressure 29.95 in    
Wind  
Wind Speed 19 mph (ESE)    
Max Wind Speed 28 mph    
Max Gust Speed 39 mph    
Visibility 9 miles    
Events Rain , Thunderstorm    
Averages and records for this station are not official NWS values.
T = Trace of Precipitation, MM = Missing Value Source: NWS Daily Summary

Daily Weather History Graph

Daily Weather History Graph

Search for Another Location

Airport or City:

Astronomy

Oct. 08, 2011 Rise Set
Actual Time 7:42 AM CDT 7:21 PM CDT
Civil Twilight 7:18 AM CDT 7:45 PM CDT
Nautical Twilight 6:50 AM CDT 8:13 PM CDT
Astronomical Twilight 6:22 AM CDT 8:41 PM CDT
Moon 5:24 PM CDT (10/8) 4:42 AM CDT (10/8)
Length of Visible Light 12h 27m
Length of Day
11h 39m
Waxing Gibbous, 90% of the Moon is Illuminated
Oct 8
Waxing Gibbous
Oct 11
Full
Oct 19
Last Quarter
Oct 26
New
Nov 2
First Quarter

Hourly Weather History & Observations

Time (CDT) Temp. Dew Point Humidity Pressure Visibility Wind Dir Wind Speed Gust Speed Precip Events Conditions
12:15 AM 77.5 °F 64.6 °F 64% 29.93 in 10.0 mi SSE 23.0 mph 36.8 mph N/A   Scattered Clouds
12:35 AM 77.0 °F 65.5 °F 67% 29.93 in 10.0 mi SSE 21.9 mph 36.8 mph N/A   Mostly Cloudy
1:15 AM 76.3 °F 66.0 °F 70% 29.94 in 10.0 mi SSE 26.5 mph 33.4 mph N/A   Overcast
1:35 AM 76.3 °F 66.0 °F 70% 29.94 in 10.0 mi SSE 21.9 mph 36.8 mph N/A   Overcast
1:55 AM 75.7 °F 65.7 °F 71% 29.94 in 10.0 mi South 24.2 mph 35.7 mph N/A   Overcast
2:15 AM 75.4 °F 65.5 °F 71% 29.95 in 10.0 mi South 24.2 mph 32.2 mph N/A   Overcast
2:35 AM 75.4 °F 65.7 °F 72% 29.95 in 10.0 mi South 19.6 mph 32.2 mph N/A   Overcast
2:55 AM 75.2 °F 65.7 °F 72% 29.96 in 10.0 mi South 19.6 mph 29.9 mph N/A   Overcast
3:35 AM 74.3 °F 65.1 °F 73% 29.96 in 10.0 mi South 26.5 mph 35.7 mph N/A Rain Light Rain
3:55 AM 73.4 °F 65.1 °F 75% 29.95 in 10.0 mi South 19.6 mph 39.1 mph N/A Rain Rain
4:15 AM 72.3 °F 65.5 °F 79% 29.95 in 10.0 mi South 24.2 mph 31.1 mph N/A Rain Rain
4:35 AM 72.1 °F 65.3 °F 79% 29.95 in 10.0 mi SSE 19.6 mph 29.9 mph N/A   Overcast
4:55 AM 72.1 °F 64.8 °F 78% 29.95 in 10.0 mi South 20.7 mph 32.2 mph N/A   Mostly Cloudy
5:15 AM 72.5 °F 64.4 °F 76% 29.95 in 10.0 mi South 25.3 mph 31.1 mph N/A   Mostly Cloudy
5:35 AM 72.7 °F 64.4 °F 75% 29.94 in 10.0 mi SSE 24.2 mph 34.5 mph N/A   Overcast
5:55 AM 72.5 °F 64.4 °F 76% 29.95 in 10.0 mi South 24.2 mph 34.5 mph N/A   Overcast
6:15 AM 72.7 °F 64.2 °F 75% 29.93 in 10.0 mi SSE 25.3 mph 39.1 mph N/A   Mostly Cloudy
6:35 AM 72.3 °F 64.2 °F 76% 29.92 in 10.0 mi South 25.3 mph 35.7 mph N/A   Scattered Clouds
6:55 AM 72.0 °F 64.4 °F 77% 29.91 in 10.0 mi SSE 27.6 mph 38.0 mph N/A   Scattered Clouds
7:15 AM 72.0 °F 64.4 °F 77% 29.92 in 10.0 mi SSE 25.3 mph 35.7 mph N/A   Mostly Cloudy
7:35 AM 72.0 °F 64.4 °F 77% 29.93 in 10.0 mi South 23.0 mph 32.2 mph N/A   Mostly Cloudy
7:55 AM 72.0 °F 64.4 °F 77% 29.93 in 10.0 mi South 23.0 mph 35.7 mph N/A   Mostly Cloudy
8:15 AM 72.0 °F 64.8 °F 78% 29.95 in 10.0 mi South 21.9 mph 26.5 mph N/A   Overcast
8:35 AM 72.1 °F 64.9 °F 78% 29.96 in 10.0 mi South 19.6 mph 25.3 mph N/A   Overcast
8:55 AM 72.1 °F 65.3 °F 79% 29.96 in 10.0 mi South 19.6 mph 32.2 mph N/A   Overcast
9:15 AM 72.5 °F 65.3 °F 78% 29.96 in 10.0 mi South 21.9 mph 28.8 mph N/A   Overcast
9:35 AM 72.5 °F 65.5 °F 79% 29.98 in 10.0 mi South 19.6 mph 28.8 mph N/A   Overcast
9:55 AM 72.0 °F 65.8 °F 81% 29.98 in 7.0 mi South 17.3 mph 27.6 mph N/A   Drizzle
10:15 AM 71.4 °F 66.7 °F 85% 29.98 in 10.0 mi South 16.1 mph 26.5 mph N/A Thunderstorm Overcast
10:35 AM 72.0 °F 66.6 °F 83% 30.00 in 10.0 mi SW 11.5 mph 23.0 mph N/A Thunderstorm Drizzle
11:15 AM 60.4 °F 58.1 °F 92% 30.02 in 7.0 mi NW 12.7 mph 21.9 mph 0.06 in Rain Heavy Rain
11:35 AM 60.6 °F 58.5 °F 93% 30.02 in 10.0 mi NNW 8.1 mph - 0.16 in Rain Rain
12:15 PM 62.1 °F 59.5 °F 91% 30.02 in 3.0 mi NW 5.8 mph - 0.05 in Rain Heavy Rain
12:35 PM 62.4 °F 59.7 °F 91% 30.02 in 10.0 mi NNW 6.9 mph - 0.06 in Rain Light Rain
12:55 PM 62.8 °F 59.9 °F 90% 30.00 in 10.0 mi North 6.9 mph - 0.06 in Rain , Thunderstorm Rain
1:15 PM 62.6 °F 60.1 °F 91% 30.00 in 2.5 mi NW 6.9 mph - 0.13 in Rain , Thunderstorm Heavy Thunderstorms and Rain
1:35 PM 62.1 °F 59.9 °F 93% 29.99 in 10.0 mi North 4.6 mph - 0.14 in Rain , Thunderstorm Thunderstorms and Rain
1:55 PM 62.4 °F 60.1 °F 92% 29.98 in 10.0 mi North 8.1 mph - 0.18 in Rain , Thunderstorm Rain
2:15 PM 62.4 °F 60.3 °F 93% 29.96 in 10.0 mi North 8.1 mph - N/A Rain , Thunderstorm Light Thunderstorms and Rain
2:35 PM 62.4 °F 60.3 °F 93% 29.96 in 5.0 mi NNW 5.8 mph - 0.05 in Rain , Thunderstorm Heavy Thunderstorms and Rain
2:55 PM 62.4 °F 60.3 °F 93% 29.95 in 10.0 mi North 8.1 mph - N/A Rain , Thunderstorm Light Thunderstorms and Rain
3:15 PM 62.2 °F 60.1 °F 93% 29.94 in 10.0 mi North 9.2 mph - 0.01 in Rain , Thunderstorm Light Thunderstorms and Rain
3:35 PM 63.0 °F 60.4 °F 91% 29.93 in 10.0 mi NNE 12.7 mph - 0.01 in Thunderstorm Thunderstorm
3:55 PM 63.0 °F 60.3 °F 91% 29.94 in - NNE 9.2 mph - N/A Rain , Thunderstorm Thunderstorms and Rain
4:15 PM 62.6 °F 59.9 °F 91% 29.95 in 5.0 mi NNE 4.6 mph 9.2 mph 0.06 in Rain , Thunderstorm Light Thunderstorms and Rain
4:35 PM 62.2 °F 59.7 °F 91% 29.95 in 4.0 mi NE 15.0 mph 20.7 mph 0.14 in Rain , Thunderstorm Heavy Thunderstorms and Rain
5:15 PM 61.5 °F 59.9 °F 94% 29.92 in 1.5 mi NNE 15.0 mph 21.9 mph 0.19 in Rain , Thunderstorm Heavy Thunderstorms and Rain
5:35 PM 61.2 °F 59.5 °F 94% 29.87 in 10.0 mi NE 15.0 mph - 0.20 in Rain , Thunderstorm Light Thunderstorms and Rain
5:55 PM 61.0 °F 59.2 °F 94% 29.89 in 10.0 mi North 12.7 mph - 0.20 in Rain , Thunderstorm Thunderstorms and Rain
6:15 PM 60.8 °F 59.0 °F 94% 29.92 in 10.0 mi North 9.2 mph - 0.01 in Rain , Thunderstorm Rain
6:35 PM 60.8 °F 59.0 °F 94% 29.96 in 10.0 mi ESE 4.6 mph - 0.04 in Rain , Thunderstorm Light Thunderstorms and Rain
6:55 PM 60.8 °F 59.4 °F 95% 29.95 in 4.0 mi NNE 9.2 mph - 0.11 in Rain , Thunderstorm Heavy Thunderstorms and Rain
7:15 PM 60.8 °F 59.4 °F 95% 29.93 in 10.0 mi NE 10.4 mph 19.6 mph 0.01 in Rain , Thunderstorm Light Thunderstorms and Rain
7:35 PM 60.4 °F 59.2 °F 96% 29.96 in 10.0 mi ENE 4.6 mph - 0.02 in Rain , Thunderstorm Light Thunderstorms and Rain
7:55 PM 60.4 °F 59.2 °F 96% 29.96 in 10.0 mi NE 6.9 mph - 0.03 in Rain Light Rain
8:15 PM 60.6 °F 59.4 °F 96% 29.94 in 10.0 mi NE 11.5 mph - 0.03 in Rain , Thunderstorm Light Thunderstorms and Rain
8:35 PM 60.6 °F 59.5 °F 96% 29.95 in - ENE 8.1 mph - N/A   Unknown
8:55 PM 60.8 °F 59.9 °F 97% 29.95 in 10.0 mi NE 9.2 mph - N/A Thunderstorm Mostly Cloudy
9:15 PM 60.8 °F 59.7 °F 96% 29.95 in 10.0 mi ENE 9.2 mph - N/A   Mostly Cloudy
9:35 PM 60.8 °F 59.5 °F 96% 29.95 in 10.0 mi NNE 8.1 mph - N/A   Scattered Clouds
9:55 PM 60.8 °F 59.4 °F 95% 29.97 in 10.0 mi NE 6.9 mph - N/A   Mostly Cloudy
10:15 PM 60.8 °F 59.5 °F 96% 29.97 in 10.0 mi NE 9.2 mph - N/A   Overcast
10:35 PM 61.0 °F 59.9 °F 96% 29.97 in 10.0 mi NE 8.1 mph - N/A   Mostly Cloudy
10:55 PM 61.0 °F 59.9 °F 96% 29.97 in 10.0 mi ENE 4.6 mph - N/A   Mostly Cloudy
11:15 PM 61.2 °F 59.9 °F 96% 29.97 in 10.0 mi ENE 4.6 mph - N/A   Overcast
11:35 PM 61.5 °F 60.3 °F 96% 29.96 in 10.0 mi East 8.1 mph - N/A   Overcast
11:55 PM 61.7 °F 60.1 °F 94% 29.95 in 10.0 mi East 8.1 mph - N/A   Overcast